CW3094 Weather Reports


Display with metric or nautical units.
time (UTC)temp
F
wind
direction
speed
MPH
gust
MPH
rain 1hr
in
rain 24hr
in
rain mn
in
humidity
%
barometer
mb
20171023204403 67 243 2.0 13.0 0.00 0.00 0.00 90 1021.8
20171023203404 68 213 2.0 12.0 0.00 0.00 0.00 89 1021.9
20171023202401 68 144 3.0 12.0 0.00 0.00 0.00 88 1022.0
20171023201403 68 93 3.0 10.0 0.00 0.00 0.00 88 1022.1
20171023200404 68 272 3.0 8.0 0.00 0.00 0.00 87 1022.4
20171023195401 68 238 1.0 6.0 0.00 0.00 0.00 87 1022.7
20171023194403 69 202 3.0 9.0 0.00 0.00 0.00 85 1022.8
20171023193404 69 140 3.0 9.0 0.00 0.00 0.00 84 1022.6
20171023192401 69 229 3.0 9.0 0.00 0.00 0.00 83 1022.8
20171023191404 69 242 2.0 6.0 0.00 0.00 0.00 82 1023.1
20171023190404 69 318 2.0 8.0 0.00 0.00 0.00 81 1023.3
20171023185401 69 242 2.0 5.0 0.00 0.00 0.00 80 1023.3
20171023184402 70 185 3.0 8.0 0.00 0.00 0.00 81 1023.3
20171023183404 70 238 3.0 8.0 0.00 0.00 0.00 80 1023.4
20171023182402 70 228 2.0 13.0 0.00 0.00 0.00 78 1023.5
20171023181404 70 206 3.0 8.0 0.00 0.00 0.00 81 1023.5
20171023180401 69 194 3.0 3.0 0.00 0.00 0.00 82 1023.9
20171023175401 69 229 2.0 10.0 0.00 0.00 0.00 82 1024.1
20171023174402 69 244 3.0 9.0 0.00 0.00 0.00 85 1024.0
20171023173359 69 194 4.0 12.0 0.00 0.00 0.00 85 1024.2
20171023172400 68 116 3.0 9.0 0.00 0.00 0.00 88 1024.2
20171023171403 68 168 3.0 8.0 0.00 0.00 0.00 90 1024.4
20171023170359 68 233 0.0 7.0 0.00 0.00 0.00 89 1024.6
20171023165400 68 219 2.0 8.0 0.00 0.00 0.00 90 1024.7
20171023164403 68 154 3.0 15.0 0.00 0.00 0.00 89 1025.1
20171023163400 68 63 3.0 8.0 0.00 0.00 0.00 91 1025.2
20171023162402 66 232 3.0 9.0 0.00 0.00 0.00 96 1025.4
20171023161403 64 139 5.0 8.0 0.00 0.00 0.00 96 1025.6
20171023160400 65 151 3.0 7.0 0.00 0.00 0.00 96 1025.7
20171023155402 65 322 2.0 8.0 0.00 0.00 0.00 97 1025.9
20171023154403 64 17 1.0 9.0 0.00 0.00 0.00 98 1026.1
20171023153359 63 111 1.0 8.0 0.00 0.00 0.00 99 1026.2
20171023152401 62 144 4.0 8.0 0.00 0.00 0.00 100 1026.2
20171023151403 62 215 1.0 7.0 0.00 0.00 0.00 100 1026.4
20171023150400 61 97 3.0 8.0 0.00 0.00 0.00 100 1026.5
20171023145402 61 30 2.0 7.0 0.00 0.00 0.00 100 1026.7
20171023144404 60 83 0.0 3.0 0.00 0.00 0.00 100 1026.8
20171023143401 60 137 2.0 5.0 0.00 0.00 0.00 100 1026.9
20171023142403 59 338 1.0 6.0 0.00 0.00 0.00 100 1027.1
20171023141404 59 144 1.0 3.0 0.00 0.00 0.00 100 1027.2
20171023140400 59 37 0.0 2.0 0.00 0.00 0.00 100 1027.3
20171023135402 58 219 0.0 0.0 0.00 0.00 0.00 100 1027.3
20171023134404 58 219 0.0 0.0 0.00 0.00 0.00 100 1027.3
20171023133400 58 219 0.0 0.0 0.00 0.00 0.00 100 1027.3
20171023132402 58 219 0.0 0.0 0.00 0.00 0.00 100 1027.4
20171023131404 57 219 0.0 0.0 0.00 0.00 0.00 100 1027.5
20171023130401 57 219 0.0 0.0 0.00 0.00 0.00 100 1027.5
20171023125402 57 219 0.0 0.0 0.00 0.00 0.00 100 1027.6
20171023124404 57 219 0.0 0.0 0.00 0.00 0.00 100 1027.6
20171023123401 56 219 0.0 0.0 0.00 0.00 0.00 100 1027.6
20171023122402 55 219 0.0 0.0 0.00 0.00 0.00 100 1027.6
20171023121404 54 219 0.0 0.0 0.00 0.00 0.00 100 1027.5
20171023120359 54 219 0.0 0.0 0.00 0.00 0.00 100 1027.5
20171023115401 54 219 0.0 0.0 0.00 0.00 0.00 100 1027.5
20171023114403 54 219 0.0 0.0 0.00 0.00 0.00 100 1027.5
20171023113400 54 219 0.0 0.0 0.00 0.00 0.00 100 1027.6
20171023112403 54 219 0.0 0.0 0.00 0.00 0.00 100 1027.7
20171023111405 54 219 0.0 0.0 0.00 0.00 0.00 100 1027.7
20171023110400 53 219 0.0 0.0 0.00 0.00 0.00 100 1027.7
20171023105402 53 219 0.0 0.0 0.00 0.00 0.00 100 1027.6
20171023104404 54 219 0.0 0.0 0.00 0.00 0.00 100 1027.6
20171023103401 54 219 0.0 0.0 0.00 0.00 0.00 100 1027.7
20171023102402 54 219 0.0 2.0 0.00 0.00 0.00 100 1027.8
20171023101405 54 230 0.0 0.0 0.00 0.00 0.00 100 1027.9
20171023100400 54 230 0.0 5.0 0.00 0.00 0.00 100 1027.8
20171023095401 54 239 2.0 3.0 0.00 0.00 0.00 100 1028.0
20171023094404 53 234 2.0 2.0 0.00 0.00 0.00 100 1028.0
20171023093400 53 176 1.0 2.0 0.00 0.00 0.00 100 1028.0
20171023092402 52 289 0.0 0.0 0.00 0.00 0.00 100 1028.0
20171023091404 52 289 0.0 0.0 0.00 0.00 0.00 100 1027.9
20171023090400 52 289 0.0 0.0 0.00 0.00 0.00 100 1027.8
20171023085402 51 289 0.0 0.0 0.00 0.00 0.00 100 1027.8
20171023084403 51 289 0.0 0.0 0.00 0.00 0.00 100 1027.7
20171023083400 51 289 0.0 0.0 0.00 0.00 0.00 100 1027.6
20171023082401 51 289 0.0 0.0 0.00 0.00 0.00 100 1027.7
20171023081404 50 289 0.0 0.0 0.00 0.00 0.00 100 1027.8
20171023080402 49 289 0.0 0.0 0.00 0.00 0.00 100 1027.8
20171023075403 49 289 0.0 0.0 0.00 0.00 0.00 100 1027.8
20171023074404 48 289 0.0 0.0 0.00 0.00 0.00 100 1027.7
20171023073402 48 289 0.0 0.0 0.00 0.00 0.00 100 1027.6
20171023072403 48 289 0.0 0.0 0.00 0.00 0.00 100 1027.7
20171023071405 48 289 0.0 0.0 0.00 0.00 0.00 100 1027.8
20171023070400 48 289 0.0 0.0 0.00 0.00 0.00 100 1027.9
20171023065403 48 289 0.0 0.0 0.00 0.00 0.00 100 1028.1
20171023064404 48 289 0.0 0.0 0.00 0.00 0.00 100 1028.1
20171023063401 47 289 0.0 0.0 0.00 0.00 0.00 100 1028.2
20171023062403 47 289 0.0 0.0 0.00 0.00 0.00 100 1028.3
20171023061405 47 289 0.0 0.0 0.00 0.00 0.00 100 1028.4
20171023060401 47 289 0.0 0.0 0.00 0.00 0.00 100 1028.4
20171023055403 48 289 0.0 0.0 0.00 0.00 0.00 100 1028.4
20171023054405 48 289 0.0 0.0 0.00 0.00 0.00 99 1028.5
20171023053400 49 289 0.0 0.0 0.00 0.00 0.00 98 1028.4
20171023052402 49 289 0.0 0.0 0.00 0.00 0.00 98 1028.5
20171023051403 49 289 0.0 0.0 0.00 0.00 0.00 98 1028.5
20171023050401 49 289 0.0 0.0 0.00 0.00 0.00 98 1028.5
20171023045402 49 289 0.0 0.0 0.00 0.00 0.00 97 1028.6
20171023044404 49 289 0.0 0.0 0.00 0.00 0.00 98 1028.6
20171023043403 50 289 0.0 0.0 0.00 0.00 0.00 98 1028.7
20171023042402 50 289 0.0 0.0 0.00 0.00 0.00 98 1028.7
20171023041404 50 289 0.0 0.0 0.00 0.00 0.00 98 1028.9
20171023040403 50 289 0.0 0.0 0.00 0.00 0.00 98 1029.1
20171023035403 50 289 0.0 0.0 0.00 0.00 0.00 98 1029.2
20171023034405 50 289 0.0 0.0 0.00 0.00 0.00 99 1029.1
20171023033401 51 289 0.0 0.0 0.00 0.00 0.00 99 1029.2
20171023032403 51 289 0.0 0.0 0.00 0.00 0.00 99 1029.2
20171023031405 51 289 0.0 0.0 0.00 0.00 0.00 98 1029.2
20171023030400 51 289 0.0 0.0 0.00 0.00 0.00 98 1029.2
20171023025404 52 289 0.0 0.0 0.00 0.00 0.00 98 1029.2
20171023024404 52 289 0.0 0.0 0.00 0.00 0.00 97 1029.2
20171023023401 52 289 0.0 0.0 0.00 0.00 0.00 97 1029.2
20171023022403 52 289 0.0 0.0 0.00 0.00 0.00 97 1029.2
20171023021405 52 289 1.0 2.0 0.00 0.00 0.00 97 1029.2
20171023020400 52 274 0.0 0.0 0.00 0.00 0.00 96 1029.3
20171023015401 52 274 1.0 3.0 0.00 0.00 0.00 96 1029.3
20171023014403 52 260 2.0 5.0 0.00 0.00 0.00 96 1029.2
20171023013401 52 260 2.0 3.0 0.00 0.00 0.00 95 1029.1
20171023012401 52 257 2.0 3.0 0.00 0.00 0.00 94 1029.2
20171023011404 53 260 2.0 3.0 0.00 0.00 0.00 92 1029.0
20171023010401 53 277 0.0 0.0 0.00 0.00 0.00 92 1028.9
20171023005402 53 277 0.0 0.0 0.00 0.00 0.00 90 1028.9
20171023004404 53 277 0.0 2.0 0.00 0.00 0.00 89 1028.8
20171023003401 54 241 0.0 0.0 0.00 0.00 0.00 86 1028.6
20171023002403 54 241 0.0 0.0 0.00 0.00 0.00 85 1028.6
20171023001405 55 241 0.0 0.0 0.00 0.00 0.00 84 1028.6
20171023000401 55 241 0.0 0.0 0.00 0.00 0.00 84 1028.5
20171022235401 55 241 0.0 0.0 0.00 0.00 0.00 83 1028.4
20171022234403 56 241 0.0 0.0 0.00 0.00 0.00 84 1028.4
20171022233400 56 241 0.0 0.0 0.00 0.00 0.00 84 1028.3
20171022232402 57 241 0.0 0.0 0.00 0.00 0.00 82 1028.3
20171022231404 58 241 0.0 0.0 0.00 0.00 0.00 81 1028.2
20171022230401 58 241 0.0 0.0 0.00 0.00 0.00 78 1028.2
20171022225402 59 241 0.0 0.0 0.00 0.00 0.00 76 1028.1
20171022224404 60 241 0.0 0.0 0.00 0.00 0.00 73 1027.9
20171022223401 60 230 0.0 1.0 0.00 0.00 0.00 71 1027.9
20171022222403 61 224 0.0 2.0 0.00 0.00 0.00 69 1027.8
20171022221404 62 80 0.0 0.0 0.00 0.00 0.00 67 1027.7
20171022220402 62 80 0.0 0.0 0.00 0.00 0.00 65 1027.9
20171022215403 63 80 0.0 0.0 0.00 0.00 0.00 63 1028.0
20171022214404 64 80 0.0 0.0 0.00 0.00 0.00 63 1028.1
20171022213402 65 80 0.0 0.0 0.00 0.00 0.00 62 1028.1
20171022212403 66 80 0.0 0.0 0.00 0.00 0.00 60 1028.1
20171022211405 67 80 0.0 1.0 0.00 0.00 0.00 60 1028.0
20171022210401 68 212 0.0 2.0 0.00 0.00 0.00 58 1027.9
20171022205403 69 281 0.0 3.0 0.00 0.00 0.00 57 1027.9